ARIANE 5 DEB (SYLDA)

Satellite information

Favourite Embed

Satellite Type and Status

DEBRISIN ORBIT

Key statistics

Satellite ARIANE 5 DEB (SYLDA) at a glance.

Uptime

9159

Days in orbit

Revolutions

≈ 2.0

Per day

Orbit

OTHER

Other

Inclination

6.7

Latest

Satellite identification and parameters

Extended collection of information and parameters for ARIANE 5 DEB (SYLDA).

Object identification

Identified? True

Debris? True

Object name: ARIANE 5 DEB (SYLDA)

International designator: 2000-072F

Object number (NORAD): 26613

Object ID (CCSDS): 26613

Country: FRANCE (FR)

Current information (Y/N): Y

RCS size: LARGE

Orbital parameters

Period: 708.936 minutes

Inclination: 6.698 deg

SMA: 26336.909 km

Apoapsis: 39301.18 km

Periapsis: 616.368 km

RAAN: 79.829 deg

Eccentricy: 0.73442203

Argument of periapsis: 39.5015 deg

Mean anomaly: 109.466 deg

Mean motion: 2.03121344 rev/day

Mean motion (dot): -0.00000259 rev/day2

B* drag term: 0.0040810047 1/REarth

Two-line elements (TLE)

Creation date: Dec. 12, 2025, 10:14 a.m.

Reference frame: TEME

Reference center: EARTH

Epoch: Dec. 12, 2025, 5:29 a.m. UTC

TLE line 0: 0 ARIANE 5 DEB (SYLDA)

TLE line 1: 1 26613U 00072F 25346.22852550 -.00000259 00000-0 40810-2 0 9998

TLE line 2: 2 26613 6.6980 79.8290 7344220 39.5015 109.4660 2.03121344185515

Live tracking on map

Real-time ground track for satellite ARIANE 5 DEB (SYLDA).

In-orbit conjunctions

A list of the most updated potential collisions computed for object ARIANE 5 DEB (SYLDA).

Target Orbit TCA Probability of collision Miss distance Type
SL-12 R/B(2) MEO 2025-10-29 04:46:21 TBA 1111.0 (m) ROCKET BODY

Associated space launch

PAS-1R a commications satellite located at 40 degrees west, serving the Americas, the Caribbean, Europe and Africa, operated by PanAmSat. Amsat P3D was an amateur radio satellite built and operated by AmSat. STRV was a series of four satellites operated by the UK MoD, intended to test new technologies, two were launched on this vehicle.

ARIANE 5 DEB (SYLDA) was lifted into orbit during the mission ‘Ariane 5 G | PAS-1R, Amsat P3D, STRV 1C, STRV 1D’, on board a Ariane 5 G space rocket.

The launch took place on Nov. 16, 2000, 1:07 a.m. from Ariane Launch Area 3.

For more information about the launch, click the button.

Launch to space Ariane 5 G | PAS-1R, Amsat P3D, STRV 1C, STRV 1D
Ariane 5 G | PAS-1R, Amsat P3D, STRV 1C, STRV 1D

Agency: N/A

Status: Launch Successful

Launch date: Nov. 16, 2000, 1:07 a.m. UTC

Rocket: Ariane 5 G

Launch pad: Ariane Launch Area 3

Location: Guiana Space Centre, French Guiana

...

Latest news about this satellite

There are no fresh news available about this satellite. Check back as we update our databases every day.


Newsletter sign-up

Weekly statistics, charts and insights to help you stay on top of the space industry.